Regional Weather Roundup
Issued by NWS Albany, NY

Home | Current Version | Previous Version | Text Only | Print | Product List | Glossary On
Versions: 1 2 3 4 5 6 7 8 9 10 11 12 13 14 15 16 17 18 19 20 21 22 23 24 25 26 27
000
ASUS41 KALY 292210
RWRALY

NEW YORK STATE HOURLY WEATHER ROUNDUP
NATIONAL WEATHER SERVICE ALBANY NY
600 PM EDT MON AUG 29 2016

NOTE: "FAIR" INDICATES FEW OR NO CLOUDS BELOW 12,000 FEET WITH NO
SIGNIFICANT WEATHER AND/OR NO OBSTRUCTIONS TO VISIBILITY.

NYZ032-033-038>043-046>054-057>066-NYZ062>081-082-084-292300-
EAST


CITY           SKY/WX    TMP DP  RH WIND       PRES   REMARKS
ALBANY         MOSUNNY   81  55  40 NW8       30.11S
GLENS FALLS    SUNNY     78  58  49 NE8       30.13R
POUGHKEEPSIE   SUNNY     83  56  39 N13       30.08R
NEWBURGH       MOSUNNY   84  59  42 N14       30.12R
MONTGOMERY     SUNNY     84  60  44 NW9       30.10R
WHITE PLAINS   MOSUNNY   85  58  39 N10       30.08S
ISLIP          MOSUNNY   88  57  34 N9        30.06R
NEW YORK CITY  MOSUNNY   89  58  34 N9        30.06R
CENTRAL PARK   SUNNY     88  57  34 N6        30.09S
$$

NYZ005>009-017-018-044>046-055-056-292300-
CENTRAL


CITY           SKY/WX    TMP DP  RH WIND       PRES   REMARKS
FULTON         SUNNY     75  58  55 NW8       30.20S
SYRACUSE       MOSUNNY   75  56  51 NW8       30.18
ROME           SUNNY     77  60  55 N9        30.17S
ELMIRA         SUNNY     79  59  50 NE9       30.17S
BINGHAMTON     MOSUNNY   74  58  57 N10       30.21R
MONTICELLO     SUNNY     75  57  53 NW13G18   30.18S
$$

NYZ026>034-041>043-087-292300-
NORTH


CITY           SKY/WX    TMP DP  RH WIND       PRES   REMARKS
WATERTOWN      SUNNY     78  52  40 N10       30.18S
FORT DRUM      NOT AVBL
MASSENA        SUNNY     75  55  49 NW5       30.19S
SARANAC LAKE   MOSUNNY   70  52  52 NW7       30.22R
PLATTSBURGH    SUNNY     74  54  49 N9        30.16F
$$

NYZ001>004-010>016-019>021-085-292300-
WEST


CITY           SKY/WX    TMP DP  RH WIND       PRES   REMARKS
NIAGARA FALLS  MOSUNNY   78  55  44 NE6       30.20F
BUFFALO        MOSUNNY   78  58  49 N8        30.20F
DUNKIRK        SUNNY     78  60  53 N3        30.21F
JAMESTOWN      SUNNY     73  54  49 N9        30.24S
WELLSVILLE     SUNNY     76  58  53 N6        30.26S
ROCHESTER      MOSUNNY   78  55  44 NE10      30.20F
PENN YAN       SUNNY     78  58  49 VRB6      30.21S
$$

             KEY
       WCI = WIND CHILL INDEX
       VSB = VISIBILITY
       HX  = HEAT INDEX
$$




USA.gov is the U.S. government's official web portal to all federal, state and local government web resources and services.